STARLINK-32276, 60944

Orbit data source: Space-Track

STARLINK-32276, 60944 is a payload satellite owned by SpaceX/Seattle (US) in LEO that was launched on Sat, 31 Aug 2024 UTC via an FALCON 9 launch vehicle from the Air Force Western Test Range (AFWTR). Payloads include a variety of satellites, spacecraft, and rockets equipped with specific instruments for various scientific and technological missions. These include communications satellites like Starlink; space stations such as the ISS; scientific satellites like the Hubble; Earth observation satellites from companies like Planet Labs, Umbra, and HawkEye 360; GPS; miniature CubeSats for education and research; and military/defense satellites.

Loading next visibility...
STARLINK-32276 details
Identifier
60944, 2024-155W
Orbit
LEO
Last TLE update14 hours ago
Origin
Flag of USSpaceX/Seattle (US)
ManufacturerSpaceX/Seattle
MissionOperational spacecraft
Bus & MotorSTARLINK V2M, Unknown motor
Mass730 kg wet, ~700 kg dry
Launch date (UTC)
2024-08-31 (5 months ago)
Launch vehicle
FALCON 9
Launch site
Air Force Western Test Range (AFWTR)
Object type
Payload
Rocket body
Debris
Shape & HBRUnknown
Radar Cross SectionLarge (>1 m²)

Expand to show TLE details & history

TLE from 14 hours ago
0 STARLINK-32276
1 60944U 24155W   25014.92793134 -.00000331  00000-0  94672-6 0  9992
2 60944  53.1598 274.9778 0001330  63.0820 297.0316 15.30189831 22276
Epoch: 2025-01-14T22:16Z
Definitive object data (Epoch: 2025-01-14T22:16:13.267Z)
Latitude-0.00008°
Longitude-173.70514°
Altitude475.731 km
Speed7.629 km/s
True Right ascension18h 19m 54s
True Declination0° 00' 00"
Sunlit
Object was in daylight at TLE epoch
Visualization TLE readout
Latitude-50.73633°
Longitude69.36065°
Altitude493.685 km
Speed7.617 km/s
Apparent Right ascension04h 45m 54s
Apparent Declination-74° 58' 28"
Sunlit
Object is in daylight
Visualization observer readout
Local Sidereal Time12:35:28
Azimuth199.113° SSW
Elevation-45.334°
Doppler factor1
Orbital elements
Apogee altitude476.413 km
Perigee altitude474.59 km
Semi-major axis6,853.639 km
Eccentricity0.000133
Inclination53.1598°
RAAN274.9778°
Arg. of periapsis63.082°
True anomaly297.01802°
Mean anomaly297.0316°
Eccentric anomaly297.02481°
Mean motion3.82526 °/min
BSTAR9.4672e-7
Orbital period94.11 mins
Loading maneuver chart data...
Loading historical data...
Loading historical data...
Loading historical data...
Loading historical data...
Loading historical data...
Loading historical data...
Loading historical data...

STARLINK-32276 Visibility forecast

Observer location: undefined°, undefined

Span
Click to sort rows by Start time (UTC) header in descending order
Start Az.
Max El. time (UTC)
Max El. Az.
Max El.
End time (UTC)
End Az.
5 mins2025-01-15 18:48:11.620Z172.434° S2025-01-15 18:50:11.620Z135.36° SSE19.009°2025-01-15 18:53:11.620Z80.265° E
5 mins2025-01-15 20:26:11.620Z261.717° W2025-01-15 20:28:11.620Z328.845° NNW35.961°2025-01-15 20:31:11.620Z37.871° NE
4 mins2025-01-16 01:23:11.620Z345.85° N2025-01-16 01:25:11.620Z31.697° NE21.88°2025-01-16 01:27:11.620Z73.042° E
5 mins2025-01-16 03:01:11.620Z292.07° WNW2025-01-16 03:03:11.620Z218.886° SW38.773°2025-01-16 03:06:11.620Z148.781° SSE
|